Starlink 35623

operational
NORAD ID: 66138 Int'l Des: 2025-237 Owner: SPXS Country: US Constellation: starlink
LEOCIRCULAR

About Starlink 35623

Description loading...

Live Position

Loading 3D Globe...

Upcoming Passes

Altitude History

Altitude vs Time

uPlot chart will show altitude changes over time

Two-Line Element Set

1 66138U 25237AA 25310.91668981 -.00248380 00000-0 -17449-2 0 9996
2 66138 53.1602 257.5367 0001541 57.8940 21.2596 15.74148137 3720
Epoch: Nov 6, 2025 • Age: 5 hours

Current Status

Altitude 352.8 km
Velocity 7.70 km/s
Sub-Earth Point 52.19°N, 83.65°W
Launch Date Oct 22, 2025
Age 15 days
Type internet

Technical Details

Classification Payload
Mass 575.00 kg
Dry Mass 530.00 kg
Total Mass 575.00 kg
Length 0.30 m
Diameter 4.10 m
Span 29.00 m
Shape Box + pan
Manufacturer SPXS
Bus Type Starlink V2MO
Phase Status In Orbit
Owner/State SPXS/US

Large Constellations

Loading constellations...